OE3FJB-5 Weather Reports


time (UTC)temp
C
wind
direction
speed
KPH
gust
KPH
rain 1hr
cm
rain 24hr
cm
rain mn
cm
humidity
%
barometer
mb
20190423061955 10 105 45.1 53.1 0.00 0.00 0.00 77 1008.5
20190423061454 10 106 30.6 40.2 0.00 0.00 0.00 77 1008.5
20190423060953 10 99 33.8 57.9 0.00 0.00 0.00 77 1008.5
20190423060452 9 95 43.5 57.9 0.00 0.00 0.00 77 1008.8
20190423055950 9 113 27.4 41.8 0.00 0.00 0.00 78 1008.5
20190423055449 9 105 33.8 40.2 0.00 0.00 0.00 78 1008.5
20190423054948 9 106 29.0 45.1 0.00 0.00 0.00 78 1008.5
20190423054448 9 106 38.6 54.7 0.00 0.00 0.00 78 1008.5
20190423053947 9 96 37.0 54.7 0.00 0.00 0.00 78 1008.5
20190423053446 9 90 32.2 45.1 0.00 0.00 0.00 78 1008.5
20190423052944 9 99 37.0 51.5 0.00 0.00 0.00 78 1008.5
20190423052443 9 105 35.4 51.5 0.00 0.00 0.00 78 1008.5
20190423051942 9 103 40.2 51.5 0.00 0.00 0.00 78 1008.5
20190423051441 9 90 29.0 46.7 0.00 0.00 0.00 78 1008.5
20190423050939 8 105 32.2 53.1 0.00 0.00 0.00 78 1008.5
20190423050438 8 96 38.6 53.1 0.00 0.00 0.00 78 1008.5
20190423045937 8 97 38.6 41.8 0.00 0.00 0.00 79 1008.5
20190423045510 8 101 32.2 38.6 0.00 0.00 0.00 79 1008.5
20190423044921 8 90 33.8 43.5 0.00 0.00 0.00 78 1008.5
20190423044420 8 105 35.4 43.5 0.00 0.00 0.00 79 1008.5
20190423043919 8 105 35.4 43.5 0.00 0.00 0.00 79 1008.1
20190423043347 8 113 35.4 43.5 0.00 0.00 0.00 78 1008.5
20190423042846 8 105 37.0 49.9 0.00 0.00 0.00 78 1008.5
20190423042345 8 97 33.8 49.9 0.00 0.00 0.00 78 1008.5
20190423041844 8 90 30.6 46.7 0.00 0.00 0.00 78 1008.5
20190423041344 8 97 33.8 43.5 0.00 0.00 0.00 78 1008.5
20190423040843 8 98 32.2 45.1 0.00 0.00 0.00 78 1008.5
20190423040311 8 105 29.0 45.1 0.00 0.00 0.00 78 1008.5
20190423035809 8 105 38.6 45.1 0.00 0.00 0.00 78 1008.5
20190423035308 8 105 30.6 40.2 0.00 0.00 0.00 77 1008.5
20190423034807 8 97 30.6 56.3 0.00 0.00 0.00 77 1008.5
20190423034306 8 102 40.2 56.3 0.00 0.00 0.00 77 1008.5
20190423033805 8 104 35.4 40.2 0.00 0.00 0.00 77 1008.5
20190423033304 8 104 32.2 46.7 0.00 0.00 0.00 77 1008.5
20190423032803 8 98 35.4 46.7 0.00 0.00 0.00 77 1008.5
20190423032302 8 104 32.2 54.7 0.00 0.00 0.00 77 1008.5
20190423031801 8 105 38.6 54.7 0.00 0.00 0.00 77 1008.5
20190423031300 8 97 41.8 54.7 0.00 0.00 0.00 77 1008.5
20190423030759 8 106 40.2 41.8 0.00 0.00 0.00 77 1008.5
20190423030227 8 118 37.0 41.8 0.00 0.00 0.00 77 1008.5
20190423025726 8 105 33.8 38.6 0.00 0.00 0.00 77 1008.8
20190423025154 8 90 32.2 40.2 0.00 0.00 0.00 77 1008.8
20190423024653 8 104 29.0 49.9 0.00 0.00 0.00 76 1008.8
20190423024152 8 97 35.4 49.9 0.00 0.00 0.00 76 1008.8
20190423023651 8 90 30.6 37.0 0.00 0.00 0.00 76 1008.8
20190423023119 8 96 30.6 38.6 0.00 0.00 0.00 76 1008.8
20190423022617 8 97 33.8 43.5 0.00 0.00 0.00 75 1009.1
20190423022046 9 105 35.4 43.5 0.00 0.00 0.00 75 1009.1
20190423021544 9 103 35.4 43.5 0.00 0.00 0.00 75 1009.1
20190423021012 9 107 33.8 41.8 0.00 0.00 0.00 75 1009.1
20190423020511 9 98 30.6 35.4 0.00 0.00 0.00 75 1009.1
20190423020009 9 90 33.8 48.3 0.00 0.00 0.00 74 1009.1
20190423015508 9 105 32.2 48.3 0.00 0.00 0.00 74 1009.1
20190423015007 9 99 40.2 48.3 0.00 0.00 0.00 74 1009.1
20190423014506 9 104 29.0 45.1 0.00 0.00 0.00 74 1009.5
20190423014005 9 96 32.2 45.1 0.00 0.00 0.00 73 1009.5
20190423013504 9 113 30.6 37.0 0.00 0.00 0.00 73 1009.5
20190423013003 9 96 27.4 33.8 0.00 0.00 0.00 73 1009.5
20190423012501 9 106 30.6 33.8 0.00 0.00 0.00 72 1009.5
20190423012003 9 100 29.0 35.4 0.00 0.00 0.00 72 1009.5
20190423011327 9 83 25.7 40.2 0.00 0.00 0.00 71 1009.5
20190423010825 9 105 33.8 37.0 0.00 0.00 0.00 71 1009.5
20190423010324 10 107 30.6 33.8 0.00 0.00 0.00 71 1009.8
20190423005752 10 90 29.0 33.8 0.00 0.00 0.00 70 1009.8
20190423005251 10 90 27.4 29.0 0.00 0.00 0.00 70 1010.2
20190423004750 10 113 25.7 33.8 0.00 0.00 0.00 70 1009.8
20190423004217 10 97 29.0 33.8 0.00 0.00 0.00 69 1009.8
20190423003717 10 106 32.2 41.8 0.00 0.00 0.00 69 1009.8
20190423003216 10 99 35.4 41.8 0.00 0.00 0.00 69 1009.8
20190423002714 10 105 35.4 38.6 0.00 0.00 0.00 69 1009.8
20190423002214 10 106 32.2 35.4 0.00 0.00 0.00 68 1009.8
20190423001712 10 95 25.7 43.5 0.00 0.00 0.00 68 1010.2
20190423001211 10 105 25.7 43.5 0.00 0.00 0.00 68 1010.2
20190423000710 10 105 32.2 41.8 0.00 0.00 0.00 68 1010.2
20190423000209 10 105 32.2 41.8 0.00 0.00 0.00 67 1010.2
20190422235708 10 98 29.0 41.8 0.00 0.00 0.00 67 1010.2
20190422235136 10 90 32.2 41.8 0.00 0.00 0.00 67 1010.5
20190422234635 10 102 27.4 41.8 0.00 0.00 0.00 66 1010.5
20190422234133 10 113 30.6 45.1 0.00 0.00 0.00 66 1010.5
20190422233601 10 107 37.0 45.1 0.00 0.00 0.00 66 1010.5
20190422233100 10 97 27.4 40.2 0.00 0.00 0.00 65 1010.5
20190422232559 10 97 33.8 40.2 0.00 0.00 0.00 65 1010.5
20190422232058 10 105 30.6 37.0 0.00 0.00 0.00 65 1010.8
20190422231557 10 90 32.2 40.2 0.00 0.00 0.00 64 1010.8
20190422231056 11 99 30.6 40.2 0.00 0.00 0.00 64 1010.8
20190422230555 11 92 35.4 38.6 0.00 0.00 0.00 64 1010.8
20190422230054 11 90 30.6 33.8 0.00 0.00 0.00 63 1011.2
20190422225553 11 99 27.4 46.7 0.00 0.00 0.00 63 1011.2
20190422225052 11 90 35.4 46.7 0.00 0.00 0.00 63 1011.2
20190422224551 11 98 29.0 32.2 0.00 0.00 0.00 63 1011.2
20190422224049 11 106 29.0 32.2 0.00 0.00 0.00 62 1011.2
20190422223555 11 90 27.4 33.8 0.00 0.00 0.00 62 1011.2
20190422223026 11 99 27.4 37.0 0.00 0.00 0.00 62 1011.2
20190422222526 11 96 30.6 37.0 0.00 0.00 0.00 62 1011.2
20190422222024 11 97 22.5 37.0 0.00 0.00 0.00 62 1011.5
20190422221523 11 106 29.0 37.0 0.00 0.00 0.00 62 1011.5
20190422221022 11 115 24.1 37.0 0.00 0.00 0.00 62 1011.5
20190422220523 11 90 32.2 37.0 0.00 0.00 0.00 62 1011.5
20190422220202 11 104 27.4 33.8 0.00 0.00 0.00 61 1011.5
20190422215701 11 105 30.6 33.8 0.00 0.00 0.00 61 1011.5
20190422215200 11 89 24.1 33.8 0.00 0.00 0.00 61 1011.5
20190422214659 11 96 29.0 33.8 0.00 0.00 0.00 61 1011.9
20190422214158 11 119 29.0 33.8 0.00 0.00 0.00 61 1011.9
20190422213626 11 98 25.7 30.6 0.00 0.00 0.00 60 1011.9
20190422213124 11 98 22.5 27.4 0.00 0.00 0.00 60 1011.9
20190422212623 11 98 19.3 27.4 0.00 0.00 0.00 60 1012.2
20190422212122 11 90 24.1 27.4 0.00 0.00 0.00 60 1012.2
20190422211550 12 99 19.3 27.4 0.00 0.00 0.00 59 1011.9
20190422211049 12 96 17.7 32.2 0.00 0.03 0.00 59 1012.2
20190422210548 12 99 20.9 32.2 0.00 0.00 0.00 59 1012.2
20190422210047 12 102 24.1 32.2 0.00 0.00 0.00 59 1012.2
20190422205546 12 91 19.3 30.6 0.00 0.00 0.00 59 1012.2
20190422205046 12 90 25.7 30.6 0.00 0.00 0.00 59 1012.2
20190422204545 12 115 24.1 30.6 0.00 0.00 0.00 59 1012.2
20190422204044 12 105 20.9 25.7 0.00 0.00 0.00 59 1012.5
20190422203543 12 90 19.3 29.0 0.00 0.00 0.00 58 1012.5
20190422203042 12 101 17.7 29.0 0.00 0.00 0.00 58 1012.5
20190422202541 12 90 20.9 25.7 0.00 0.00 0.00 58 1012.5
20190422202040 12 104 20.9 27.4 0.00 0.00 0.00 57 1012.5
20190422201539 12 99 19.3 32.2 0.00 0.00 0.00 57 1012.2
20190422201007 12 104 19.3 32.2 0.00 0.00 0.00 56 1012.5
20190422200505 12 90 19.3 27.4 0.00 0.00 0.00 56 1012.5
20190422195933 12 97 20.9 33.8 0.00 0.00 0.00 56 1012.5
20190422195432 12 97 19.3 33.8 0.00 0.00 0.00 55 1012.5
20190422194932 12 99 27.4 33.8 0.00 0.00 0.00 55 1012.2
20190422194431 12 99 24.1 30.6 0.00 0.00 0.00 56 1012.5
20190422193929 12 104 25.7 30.6 0.00 0.00 0.00 56 1012.5
20190422193428 12 105 22.5 27.4 0.00 0.00 0.00 56 1012.9
20190422192928 12 90 22.5 27.4 0.00 0.00 0.00 56 1012.5
20190422192355 12 104 16.1 19.3 0.00 0.00 0.00 55 1012.5
20190422191854 12 106 12.9 19.3 0.00 0.00 0.00 55 1012.5
20190422191322 12 80 14.5 24.1 0.00 0.00 0.00 54 1012.5
20190422190821 12 90 17.7 27.4 0.00 0.00 0.00 54 1012.5
20190422190320 12 96 14.5 27.4 0.00 0.00 0.00 53 1012.5
20190422185819 13 90 17.7 27.4 0.00 0.00 0.00 53 1012.5
20190422185319 13 96 14.5 19.3 0.00 0.00 0.00 52 1012.5
20190422184818 13 90 17.7 19.3 0.00 0.00 0.00 52 1012.5
20190422184316 13 90 14.5 20.9 0.00 0.00 0.00 51 1012.5
20190422183815 13 90 14.5 22.5 0.00 0.00 0.00 51 1012.5
20190422183314 13 90 19.3 22.5 0.00 0.00 0.00 50 1012.5
20190422182741 13 76 11.3 24.1 0.00 0.00 0.00 49 1012.5
20190422182209 13 95 17.7 24.1 0.00 0.00 0.00 49 1012.5
20190422181709 14 90 19.3 24.1 0.00 0.00 0.00 48 1012.2
20190422181136 14 98 14.5 25.7 0.00 0.00 0.00 47 1012.5
20190422180605 14 97 20.9 25.7 0.00 0.00 0.00 47 1012.2
20190422180103 15 97 24.1 32.2 0.00 0.00 0.00 46 1012.2
20190422175602 15 90 29.0 35.4 0.00 0.00 0.00 46 1012.2
20190422175030 15 90 22.5 35.4 0.00 0.00 0.00 45 1012.2
20190422174529 15 73 27.4 35.4 0.00 0.00 0.00 45 1012.2
20190422174028 15 87 19.3 35.4 0.00 0.00 0.00 44 1012.2
20190422173528 15 90 29.0 35.4 0.00 0.00 0.00 44 1012.2
20190422173027 16 90 22.5 32.2 0.00 0.00 0.00 43 1012.2
20190422172525 16 97 25.7 33.8 0.00 0.00 0.00 42 1012.2
20190422172024 16 90 33.8 33.8 0.00 0.00 0.00 42 1011.9
20190422171523 16 105 20.9 24.1 0.00 0.00 0.00 42 1012.2
20190422171022 16 97 22.5 29.0 0.00 0.00 0.00 41 1011.9
20190422170521 16 98 25.7 35.4 0.00 0.00 0.00 41 1011.9
20190422170020 16 98 22.5 35.4 0.00 0.00 0.00 40 1011.9
20190422165519 17 90 33.8 35.4 0.00 0.00 0.00 40 1011.9
20190422164948 17 92 20.9 29.0 0.00 0.00 0.00 39 1011.9
20190422164446 17 75 27.4 29.0 0.00 0.00 0.00 39 1011.9
20190422163945 17 97 20.9 32.2 0.00 0.00 0.00 39 1011.9
20190422163444 17 83 25.7 38.6 0.00 0.00 0.00 38 1011.9
20190422162943 17 73 29.0 38.6 0.00 0.00 0.00 38 1012.2
20190422162442 18 90 32.2 38.6 0.00 0.00 0.00 38 1011.9
20190422161941 18 90 27.4 33.8 0.00 0.00 0.00 38 1011.9
20190422161440 18 98 32.2 33.8 0.00 0.00 0.00 37 1011.9
20190422160938 18 99 27.4 32.2 0.00 0.00 0.00 37 1011.9
20190422160437 18 83 27.4 32.2 0.00 0.00 0.00 36 1012.2
20190422155936 18 82 25.7 32.2 0.00 0.00 0.00 36 1011.9
20190422155435 19 67 19.3 33.8 0.00 0.00 0.00 36 1011.9
20190422154904 19 75 32.2 33.8 0.00 0.00 0.00 36 1011.9
20190422154331 19 99 22.5 41.8 0.00 0.00 0.00 36 1011.9
20190422153830 19 90 29.0 41.8 0.00 0.00 0.00 36 1011.9
20190422153330 20 80 27.4 37.0 0.00 0.00 0.00 35 1011.9
20190422152829 20 90 29.0 37.0 0.00 0.00 0.00 35 1011.9
20190422152328 20 90 32.2 37.0 0.00 0.00 0.00 34 1011.9
20190422151756 20 90 25.7 37.0 0.00 0.00 0.00 33 1011.9
20190422151255 21 84 22.5 30.6 0.00 0.00 0.00 33 1011.9
20190422150754 21 90 25.7 30.6 0.00 0.00 0.00 32 1011.9
20190422150254 21 81 24.1 32.2 0.00 0.00 0.00 32 1011.9
20190422145752 21 90 25.7 32.2 0.00 0.00 0.00 32 1011.9
20190422145251 21 85 24.1 32.2 0.00 0.00 0.00 31 1011.9
20190422144750 21 73 22.5 30.6 0.00 0.00 0.00 31 1012.2
20190422144249 21 99 24.1 30.6 0.00 0.00 0.00 32 1011.9
20190422143717 21 83 19.3 29.0 0.00 0.00 0.00 31 1012.2
20190422143216 21 90 17.7 30.6 0.00 0.00 0.00 32 1012.2
20190422142716 21 99 25.7 30.6 0.00 0.00 0.00 32 1012.2
20190422142215 21 90 20.9 24.1 0.00 0.00 0.00 33 1012.2
20190422141642 21 90 22.5 29.0 0.00 0.00 0.00 33 1012.2
20190422141141 21 51 22.5 32.2 0.00 0.00 0.00 33 1012.2
20190422140640 21 83 20.9 32.2 0.00 0.00 0.00 33 1012.2
20190422140139 22 29 19.3 29.0 0.00 0.00 0.00 32 1012.2
20190422135638 22 82 20.9 29.0 0.00 0.00 0.00 32 1012.2
20190422135137 22 90 22.5 30.6 0.00 0.00 0.00 32 1012.2
20190422134636 22 72 22.5 30.6 0.00 0.00 0.00 32 1012.2
20190422134134 22 90 20.9 30.6 0.00 0.00 0.00 33 1012.2
20190422133633 22 89 16.1 22.5 0.00 0.00 0.00 34 1012.2
20190422133132 22 122 16.1 25.7 0.00 0.00 0.00 34 1012.2
20190422132600 22 72 17.7 25.7 0.00 0.00 0.00 32 1012.2
20190422132059 22 76 22.5 25.7 0.00 0.00 0.00 33 1012.5
20190422131558 22 95 14.5 20.9 0.00 0.00 0.00 19 1012.5
20190422131057 22 60 16.1 25.7 0.00 0.00 0.00 33 1012.5
20190422130556 21 90 9.7 27.4 0.00 0.00 0.00 33 1012.5
20190422130055 21 90 20.9 27.4 0.00 0.00 0.00 34 1012.5
20190422125554 21 59 11.3 16.1 0.00 0.00 0.00 33 1012.9
20190422125053 21 96 9.7 16.1 0.00 0.00 0.00 33 1012.9
20190422124552 21 90 11.3 16.1 0.00 0.00 0.00 33 1012.9
20190422124051 21 41 6.4 19.3 0.00 0.00 0.00 32 1012.9
20190422123519 21 77 11.3 29.0 0.00 0.00 0.00 33 1012.9
20190422122813 21 73 16.1 17.7 0.00 0.00 0.00 33 1012.9
20190422122241 21 89 9.7 17.7 0.00 0.00 0.00 34 1012.9
20190422121740 21 66 11.3 25.7 0.00 0.00 0.00 33 1012.9
20190422121239 21 66 16.1 25.7 0.00 0.00 0.00 34 1012.9
20190422120738 21 101 6.4 22.5 0.00 0.00 0.00 35 1012.9
20190422120237 21 90 12.9 22.5 0.00 0.00 0.00 35 1012.9
20190422115634 21 52 9.7 17.7 0.00 0.00 0.00 33 1012.9
20190422115133 21 65 14.5 22.5 0.00 0.00 0.00 35 1013.2
20190422114632 21 120 11.3 22.5 0.00 0.00 0.00 37 1013.2
20190422114132 20 113 14.5 17.7 0.00 0.00 0.00 37 1013.2
20190422113630 20 109 11.3 17.7 0.00 0.00 0.00 36 1013.2
20190422113058 20 105 9.7 20.9 0.00 0.00 0.00 36 1013.2
20190422112525 19 99 8.0 20.9 0.00 0.00 0.00 36 1013.5
20190422112025 19 90 17.7 20.9 0.00 0.00 0.00 36 1013.5
20190422111523 20 45 8.0 12.9 0.00 0.00 0.00 35 1013.5
20190422111022 20 89 11.3 20.9 0.00 0.00 0.00 36 1013.5
20190422110521 20 70 8.0 20.9 0.00 0.00 0.00 36 1013.5
20190422110020 20 73 17.7 19.3 0.00 0.00 0.00 36 1013.5
20190422105519 20 21 11.3 20.9 0.00 0.00 0.00 36 1013.5
20190422105018 20 78 12.9 20.9 0.00 0.00 0.00 36 1013.9
20190422104517 20 82 8.0 20.9 0.00 0.00 0.00 37 1013.9
20190422103945 20 50 6.4 20.9 0.00 0.00 0.00 38 1013.9
20190422103444 20 78 14.5 24.1 0.00 0.00 0.00 40 1013.9
20190422102943 20 99 17.7 24.1 0.00 0.00 0.00 39 1014.2
20190422102442 20 105 19.3 24.1 0.00 0.00 0.00 41 1014.2
20190422101941 19 113 14.5 22.5 0.00 0.00 0.00 40 1014.2
20190422101441 19 76 17.7 22.5 0.00 0.00 0.00 39 1014.2
20190422100939 19 92 14.5 20.9 0.00 0.00 0.00 39 1014.2
20190422100438 19 91 17.7 20.9 0.00 0.00 0.00 41 1014.6
20190422095937 19 77 16.1 19.3 0.00 0.00 0.00 40 1014.6
20190422095436 19 96 11.3 22.5 0.00 0.00 0.00 42 1014.2
20190422094935 19 112 17.7 22.5 0.00 0.00 0.00 40 1014.6
20190422094433 19 113 17.7 22.5 0.00 0.00 0.00 39 1014.6
20190422093933 19 84 17.7 25.7 0.00 0.00 0.00 41 1014.6
20190422093330 19 113 20.9 25.7 0.00 0.00 0.00 41 1014.6
20190422092758 19 94 14.5 22.5 0.00 0.00 0.00 42 1014.6
20190422092225 18 83 17.7 20.9 0.00 0.00 0.00 44 1014.6
20190422091724 18 94 14.5 25.7 0.00 0.00 0.00 45 1014.6
20190422091223 17 104 14.5 25.7 0.00 0.00 0.00 46 1014.6
20190422090722 17 97 19.3 25.7 0.00 0.00 0.00 47 1014.6
20190422090221 16 113 12.9 25.7 0.00 0.00 0.00 46 1014.9
20190422085720 16 90 22.5 25.7 0.00 0.00 0.00 47 1014.9
20190422085219 16 104 17.7 20.9 0.00 0.00 0.00 49 1014.9
20190422084718 16 106 16.1 29.0 0.00 0.00 0.00 50 1014.9
20190422084217 15 96 17.7 29.0 0.00 0.00 0.00 49 1014.9
20190422083644 15 78 16.1 20.9 0.00 0.00 0.00 49 1014.9
20190422083112 15 98 17.7 22.5 0.00 0.00 0.00 50 1015.2
20190422082540 15 100 14.5 24.1 0.00 0.00 0.00 52 1015.2
20190422082039 15 99 20.9 27.4 0.00 0.00 0.00 53 1015.2
20190422081538 14 96 20.9 27.4 0.00 0.00 0.00 53 1015.2
20190422081036 14 98 20.9 27.4 0.00 0.00 0.00 54 1015.2
20190422080535 13 98 19.3 27.4 0.00 0.00 0.00 55 1015.2
20190422080034 13 106 22.5 27.4 0.00 0.00 0.00 55 1015.2
20190422075533 13 96 16.1 20.9 0.00 0.00 0.00 57 1015.2
20190422075031 12 105 16.1 17.7 0.00 0.00 0.00 59 1015.6
20190422074530 12 86 9.7 17.7 0.00 0.00 0.00 60 1015.2
20190422074029 12 68 12.9 17.7 0.00 0.00 0.00 61 1015.2
20190422073528 11 96 11.3 17.7 0.00 0.00 0.00 63 1015.6
20190422073028 11 97 16.1 17.7 0.00 0.00 0.00 65 1015.6
20190422072459 10 81 12.9 16.1 0.00 0.00 0.00 66 1015.6
20190422072124 10 61 9.7 12.9 0.00 0.00 0.00 68 1015.6
20190422071623 9 23 0.0 3.2 0.00 0.00 0.00 68 1015.6
20190422071122 9 40 3.2 3.2 0.00 0.00 0.00 68 1015.6
20190422070621 8 35 3.2 3.2 0.00 0.00 0.00 69 1015.6
20190422070120 8 23 1.6 1.6 0.00 0.00 0.00 70 1015.6
20190422065619 7 23 1.6 3.2 0.00 0.00 0.00 70 1015.6
20190422065118 7 23 1.6 3.2 0.00 0.00 0.00 71 1015.6
20190422064617 7 23 0.0 0.0 0.00 0.00 0.00 72 1015.6
20190422064115 7 23 0.0 1.6 0.00 0.00 0.00 73 1015.6
20190422063614 6 23 0.0 1.6 0.00 0.00 0.00 73 1015.6
20190422063113 6 23 0.0 1.6 0.00 0.00 0.00 74 1015.6
20190422062510 6 23 1.6 1.6 0.00 0.00 0.00 74 1015.6